This is the latest recevied weather packets stored in our database for station/object KE5VBO-1. If no packets are shown the sender has not sent any weather packets the latest 10 day(s).
| Time | Temp. | Humidity | Pressure | Rain* | Wind** | Luminosity | Snow |
|---|---|---|---|---|---|---|---|
| 1777801573 | 11.11° C | 1% | 1018.7 hPa | 0 mm | - | - | - |
| 1777800636 | 11.11° C | 1% | 1018.7 hPa | 0 mm | - | - | - |
| 1777799762 | 11.11° C | 1% | 1018.7 hPa | 0 mm | - | - | - |
| 1777798827 | 11.67° C | 1% | 1018.6 hPa | 0 mm | - | - | - |
| 1777797972 | 11.67° C | 1% | 1018.5 hPa | 0 mm | - | - | - |
| 1777797017 | 11.67° C | 1% | 1018.6 hPa | 0 mm | - | - | - |
| 1777796150 | 12.22° C | 1% | 1018.5 hPa | 0 mm | - | - | - |
| 1777794371 | 12.22° C | 1% | 1018.7 hPa | 0 mm | - | - | - |
| 1777793433 | 12.22° C | 1% | 1018.8 hPa | 0 mm | - | - | - |
| 1777792575 | 12.78° C | 1% | 1018.8 hPa | 0 mm | - | - | - |
| 1777791635 | 12.78° C | 6% | 1018.9 hPa | 0 mm | - | - | - |
| 1777790784 | 12.78° C | 8% | 1018.8 hPa | 0 mm | - | - | - |
| 1777789833 | 13.33° C | 15% | 1018.8 hPa | 0 mm | - | - | - |
| 1777788969 | 13.89° C | 15% | 1018.8 hPa | 0 mm | - | - | - |
| 1777788034 | 13.89° C | 19% | 1018.7 hPa | 0 mm | - | - | - |
| 1777787174 | 13.89° C | 28% | 1018.7 hPa | 0 mm | - | - | - |
| 1777786237 | 14.44° C | 28% | 1018.6 hPa | 0 mm | - | - | - |
| 1777785368 | 14.44° C | 28% | 1018.5 hPa | 0 mm | - | - | - |
| 1777784436 | 15° C | 29% | 1018.4 hPa | 0 mm | - | - | - |
| 1777783569 | 15° C | 22% | 1018.5 hPa | 0 mm | - | - | - |
| 1777782647 | 15° C | 34% | 1018.4 hPa | 0 mm | - | - | - |
| 1777781703 | 15° C | 25% | 1018.4 hPa | 0 mm | - | - | - |
| 1777780852 | 15° C | 30% | 1018.4 hPa | 0 mm | - | - | - |
| 1777779911 | 15° C | 32% | 1018.4 hPa | 0 mm | - | - | - |
| 1777779049 | 15.56° C | 34% | 1018.3 hPa | 0 mm | - | - | - |
* Rain latest hour (hover to see other rain measurements)
** Current wind speed in m/s (hover to see current wind gust speed)